sat.trackr.live / text

‹ back to catalog

STARLINK-11366 [DTC]

NORAD 61693 · 2024-195G

PAYLOAD ACTIVE UNKNOWN

§ Identity

Operator
Country
US
Launch date
2024-10-30
Launch site
AFWTR
Launch vehicle
Mass (kg)
RCS (m²)

Purposes: comms

External: N2YO · Heavens-Above · Gunter

§ Orbital elements

Epoch: 2026-09-21T20:32:44.847168Z

Period
91.74 min
Inclination
53.1590°
Eccentricity
0.0000979
Mean motion
15.69706925 rev/d
Perigee alt
359.1 km
Apogee alt
360.4 km
Semi-major
6,737.9 km
B*
1.1319e-6
RAAN
139.2384°
Arg perigee
82.7979°
Mean anomaly
277.3150°
Rev number
10,984

§ Raw data

STARLINK-11366 [DTC]1 61693U 24195G   26264.85607462 -.00000451  00000+0  11319-5 0  99942 61693  53.1590 139.2384 0000979  82.7979 277.3150 15.69706925109844

JSON: /api/v1/satellites/61693 · /tle

For live sub-satellite position, see the globe view (requires WebGL).

§ Visibility from observer

Set your observer location to see the next 7 days of passes ≥ 10°. The values pass through the URL so the page stays shareable.

No JS? Fill the form by hand. The geolocation button needs JavaScript.